Regional Weather Roundup
Issued by NWS Albany, NY

Home | Current Version | Previous Version | Text Only | Print | Product List | Glossary On
Versions: 1 2 3 4 5 6 7 8 9 10 11 12 13 14 15 16 17 18 19 20 21 22 23 24 25 26 27 28 29 30 31 32 33 34 35 36 37 38 39 40 41 42 43 44 45 46 47 48 49 50
000
ASUS41 KALY 280010
RWRALY

NEW YORK STATE HOURLY WEATHER ROUNDUP
NATIONAL WEATHER SERVICE ALBANY NY
800 PM EDT THU APR 27 2017

NOTE: "FAIR" INDICATES FEW OR NO CLOUDS BELOW 12,000 FEET WITH NO
SIGNIFICANT WEATHER AND/OR NO OBSTRUCTIONS TO VISIBILITY.

NYZ032-033-038>043-046>054-057>066-NYZ062>081-082-084-280100-
EAST


CITY           SKY/WX    TMP DP  RH WIND       PRES   REMARKS
ALBANY         MOCLDY    69  57  65 S13       29.81S
GLENS FALLS    CLEAR     70  56  61 S10       29.79R
POUGHKEEPSIE   CLOUDY    64  56  75 SE8       29.85S
NEWBURGH       CLOUDY    63  59  88 SE12      29.88  FOG
MONTGOMERY     CLOUDY    65  57  75 SE9       29.85R
WHITE PLAINS   CLOUDY    60  56  86 SE9       29.90R
ISLIP          CLOUDY    59  58  96 SE9       29.91F
NEW YORK CITY  CLOUDY    63  58  83 SE12      29.88S FOG
CENTRAL PARK   CLOUDY    60  60 100 SE8       29.90F FOG
$$

NYZ005>009-017-018-044>046-055-056-280100-
CENTRAL


CITY           SKY/WX    TMP DP  RH WIND       PRES   REMARKS
FULTON         CLOUDY    78  56  46 S10G20    29.63R
SYRACUSE       CLOUDY    75  60  59 SE9       29.65R
ROME           PTCLDY    71  59  65 E15G23    29.70S
ELMIRA         CLOUDY    76  57  51 S12G25    29.70R
BINGHAMTON     CLOUDY    70  57  63 S16G28    29.75R
MONTICELLO     PTCLDY    63  59  88 SE12      29.86R
$$

NYZ026>034-041>043-087-280100-
NORTH


CITY           SKY/WX    TMP DP  RH WIND       PRES   REMARKS
WATERTOWN      CLOUDY    77  59  53 S10       29.60R
FORT DRUM      NOT AVBL
OGDENSBURG     FAIR      75  62  64 S3        29.59S
MASSENA        CLEAR     72  58  61 NE9       29.62F
SARANAC LAKE   CLEAR     70  56  61 S12       29.72S
PLATTSBURGH    PTCLDY    67  54  63 SE10      29.72S
$$

NYZ001>004-010>016-019>021-085-280100-
WEST


CITY           SKY/WX    TMP DP  RH WIND       PRES   REMARKS
NIAGARA FALLS  CLOUDY    67  58  72 W13G23    29.64R
BUFFALO        CLOUDY    61  56  83 SW14      29.66R
DUNKIRK        LGT RAIN  60  57  89 S7        29.69R
JAMESTOWN      MOCLDY    63  55  77 W10G16    29.70R
WELLSVILLE     LGT RAIN  70  56  61 S15G28    29.72R
ROCHESTER      CLOUDY    76  58  53 SW13G25   29.61R
PENN YAN       CLOUDY    74  56  53 S10       29.68R
$$

             KEY
       WCI = WIND CHILL INDEX
       VSB = VISIBILITY
       HX  = HEAT INDEX
$$



USA.gov is the U.S. government's official web portal to all federal, state and local government web resources and services.